Retour au catalogue

STARLINK-32405

ActifCommunicationsVLEO
NORAD 61636·PAYLOAD·🇺🇸 United States

Lancé Oct 23, 2024 depuis Cape Canaveral Space Force Station

Loading…

Prochains Passages (prochaines 24 heures)

TLE

FraisSource: CelesTrak SupGP

Époque: Sep 14, 2026, 21:15 UTC

1 61636C 24191R   26257.88590278 -.00026997  00000+0 -97772-3 0  2574
2 61636  43.0006 169.8659 0001376 264.2029 220.8760 15.27595657    11

Suivez STARLINK-32405 en temps réel avec AllMySat

Download on the App Store